Simultaneous Nadir Overpasses (SNOs) Predictions

Prediction of SNOs between LANDSAT-8 and METOP-B Satellite Orbit:

Table of predicted SNOs for the next 14.0 days since TLE Epoch: 9/28/2024
Index Date (LANDSAT-8) Time (LANDSAT-8) Lat,Lon (LANDSAT-8) SZA (LANDSAT-8 ) Date (METOP-B) Time (METOP-B) Lat,Lon (METOP-B) SZA (METOP-B ) Distance(km) Time Diff (sec)
1 09/30/2024 11:50:31 81.40, 47.31 87.25 09/30/2024 11:50:05 81.40, 47.37 87.24 1.11 26
2 09/30/2024 12:39:58 -81.40,-145.15 92.75 09/30/2024 12:40:45 -81.40,-145.03 92.72 2.00 47
3 10/03/2024 07:24:41 81.40, 113.72 88.35 10/03/2024 07:24:22 81.40, 113.91 88.37 3.14 19
4 10/03/2024 08:14:08 -81.40, -78.72 91.65 10/03/2024 08:15:03 -81.40, -78.86 91.64 2.38 55
5 10/06/2024 02:58:50 81.39,-179.94 89.43 10/06/2024 02:58:40 81.40, 179.88 89.41 2.92 10
6 10/06/2024 03:48:16 -81.41, -11.98 90.51 10/06/2024 03:49:19 -81.40, -12.07 90.50 1.63 63
7 10/08/2024 21:43:59 -80.72, 68.60 91.07 10/08/2024 21:42:52 -80.95, 64.89 91.25 70.53 67
8 10/08/2024 22:32:56 81.40,-113.29 90.55 10/08/2024 22:32:54 81.40,-113.13 90.57 2.81 2
9 10/08/2024 23:22:23 -81.40, 54.30 89.45 10/08/2024 23:23:35 -81.40, 54.16 89.43 2.33 72
10 10/11/2024 17:17:37 -81.39, 145.28 88.43 10/11/2024 17:16:31 -81.40, 145.39 88.44 1.96 66



Historial Predications of SNOs between LANDSAT-8 and METOP-B
